Regional Weather Roundup
Issued by NWS Midland/Odessa, TX

Skip options and go directly to product.
Home | Oldest Version | Previous Version | Current Version | All | Graphics & Text | Save Text | Print | Product List | Glossary On

Skip product version selection by date and time.   
264
ASUS44 KMAF 071710
RWRMAF
MIDLAND AREA WEATHER ROUNDUP
NATIONAL WEATHER SERVICE MIDLAND TX
1100 AM CST SUN FEB 07 2016

...IN SOUTHWEST TEXAS AND SOUTHEAST NEW MEXICO...

CITY           SKY/WX    TMP DP  RH WIND       PRES   REMARKS
ALPINE         SUNNY     61   2   9 W15       30.31S
ANDREWS        FAIR      59  18  20 NW15      30.21R
ARTESIA        SUNNY     50  16  25 NE7       30.25R
BIG SPRING     SUNNY     51  19  28 W12       30.20R
CARLSBAD       SUNNY     52  17  25 NE6       30.22R
DRYDEN           N/A     62   9  12 SW17      30.20F
FORT STOCKTON  SUNNY     58   9  14 W7        30.23S
GUAD PASS      SUNNY     44   5  20 SW17      30.28F WCI  36
HOBBS          SUNNY     57  16  19 NW18G24   30.22R
MARFA          SUNNY     57   2  11 W13       30.30S
MIDLAND AIRPK  SUNNY     60  14  16 NW17G23   30.20R
MIDLAND INTL   SUNNY     59  13  16 NW14      30.20R
ODESSA         SUNNY     62  12  14 NW15      30.22R
PECOS          SUNNY     63  12  14 W15       30.22F
PRESIDIO       FAIR      51  11  20 NE5       30.30S
SEMINOLE       SUNNY     58  19  22 N18       30.21R
SNYDER           N/A     54  20  27 NW17G23   30.16R
WINK           SUNNY     61  11  14 W14       30.20S
$$
...OTHER STATIONS IN TEXAS...

CITY           SKY/WX    TMP DP  RH WIND       PRES   REMARKS
ABILENE        SUNNY     56  22  26 S13       30.13F
AMARILLO       SUNNY     51  23  33 N14       30.24R
AUSTIN         MOSUNNY   53  37  54 S10       30.28S
BROWNSVILLE    SUNNY     67  37  33 SE7       30.32F
CORPUS CHRISTI MOSUNNY   65  39  38 S10       30.30F
DALLAS FTW     MOSUNNY   53  34  48 S20       30.20F
DEL RIO        SUNNY     56  20  24 SE13      30.25F
EL PASO        PTSUNNY   48   9  20 NW3       30.33F
HOUSTON INT    MOSUNNY   56  40  55 SE5       30.30S
LUBBOCK        MOSUNNY   56  18  22 N23G30    30.18R
SAN ANGELO     SUNNY     60  18  19 SW22      30.18F
SAN ANTONIO    MOSUNNY   52  35  52 S9        30.28F
WACO           SUNNY     51  37  58 S9        30.26F
WICHITA FALLS  NOT AVBL
$$
...OTHER LOCATIONS IN NEW MEXICO...

CITY           SKY/WX    TMP DP  RH WIND       PRES   REMARKS
ALAMAGORDO     SUNNY     41   7  24 CALM      30.34S
ALBUQUERQUE    MOSUNNY   42  16  34 N13       30.39S WCI  35
CANNON AFB     SUNNY     53  18  25 NE21      30.24R
CLOVIS         SUNNY     52  19  28 NE22      30.26R
HOLLOMAN AFB   SUNNY     46  11  24 SE2       30.32S
ROSWELL        SUNNY     52  16  24 E3        30.23R
RUIDOSO          N/A     46   9  21 NW7G16    30.34S
SANTA FE       CLOUDY    36  15  42 N17       30.36R WCI  26
TRUTH OR CONSE SUNNY     45  13  27 VRB5      30.37R
TUCUMCARI      SUNNY     50  20  30 NE10      30.27R
$$

USA.gov is the U.S. government's official web portal to all federal, state and local government web resources and services.